Time,TemperatureF,DewpointF,PressureIn,WindDirection,WindDirectionDegrees,WindSpeedMPH,WindSpeedGustMPH,Humidity,HourlyPrecipIn,Conditions,Clouds,dailyrainin,SoftwareType,DateUTC
2013-03-05 00:00:00,25.7,23.0,29.40,ENE,67,2.3,3.3,83,0.00,,,0.00,Rainwise IP-100,2013-03-05 05:00:00,
2013-03-05 00:05:00,25.7,23.0,29.40,NE,45,0.0,4.0,83,0.00,,,0.00,Rainwise IP-100,2013-03-05 05:05:00,
2013-03-05 00:10:00,25.7,23.0,29.40,NE,45,0.0,0.0,83,0.00,,,0.00,Rainwise IP-100,2013-03-05 05:10:00,
2013-03-05 00:15:00,25.7,23.0,29.40,NE,45,0.0,0.0,83,0.00,,,0.00,Rainwise IP-100,2013-03-05 05:15:00,
2013-03-05 00:20:00,25.9,23.0,29.41,North,360,1.2,5.4,83,0.00,,,0.00,Rainwise IP-100,2013-03-05 05:20:00,
2013-03-05 00:25:00,25.9,23.0,29.41,NNE,22,2.6,6.8,83,0.00,,,0.00,Rainwise IP-100,2013-03-05 05:25:00,
2013-03-05 00:30:00,25.9,23.0,29.41,North,360,2.3,5.1,83,0.00,,,0.00,Rainwise IP-100,2013-03-05 05:30:00,
2013-03-05 00:35:00,25.8,23.0,29.41,ENE,67,3.7,7.7,83,0.00,,,0.00,Rainwise IP-100,2013-03-05 05:35:00,
2013-03-05 00:40:00,25.7,23.0,29.41,NE,45,7.5,8.2,83,0.00,,,0.00,Rainwise IP-100,2013-03-05 05:40:00,
2013-03-05 00:45:00,25.6,23.0,29.42,NNE,22,3.0,8.4,83,0.00,,,0.00,Rainwise IP-100,2013-03-05 05:45:00,
2013-03-05 00:50:00,25.6,23.0,29.41,NNE,22,2.3,5.6,83,0.00,,,0.00,Rainwise IP-100,2013-03-05 05:50:00,
2013-03-05 00:55:00,25.6,23.0,29.41,NE,45,1.6,5.8,83,0.00,,,0.00,Rainwise IP-100,2013-03-05 05:55:00,
2013-03-05 01:01:00,25.6,23.0,29.41,North,360,0.0,4.7,83,0.00,,,0.00,Rainwise IP-100,2013-03-05 06:01:00,
2013-03-05 01:06:00,25.6,23.0,29.42,NE,45,1.6,4.4,83,0.00,,,0.00,Rainwise IP-100,2013-03-05 06:06:00,
2013-03-05 01:11:00,25.6,23.0,29.42,NE,45,5.4,5.4,83,0.00,,,0.00,Rainwise IP-100,2013-03-05 06:11:00,
2013-03-05 01:16:00,25.6,23.0,29.42,ENE,67,5.1,6.3,83,0.00,,,0.00,Rainwise IP-100,2013-03-05 06:16:00,
2013-03-05 01:21:00,25.6,23.0,29.43,NNE,22,1.2,6.8,83,0.00,,,0.00,Rainwise IP-100,2013-03-05 06:21:00,
2013-03-05 01:26:00,25.6,23.0,29.42,NNE,22,0.0,4.0,83,0.00,,,0.00,Rainwise IP-100,2013-03-05 06:26:00,
2013-03-05 01:31:00,25.6,23.0,29.43,NE,45,1.4,5.8,83,0.00,,,0.00,Rainwise IP-100,2013-03-05 06:31:00,
2013-03-05 01:36:00,25.6,23.0,29.42,NNW,337,3.0,5.6,83,0.00,,,0.00,Rainwise IP-100,2013-03-05 06:36:00,
2013-03-05 01:41:00,25.6,23.0,29.43,ENE,67,2.6,5.6,83,0.00,,,0.00,Rainwise IP-100,2013-03-05 06:41:00,
2013-03-05 01:46:00,25.6,23.0,29.43,NE,45,4.9,7.2,83,0.00,,,0.00,Rainwise IP-100,2013-03-05 06:46:00,
2013-03-05 01:51:00,25.6,23.0,29.43,NW,315,3.5,4.9,83,0.00,,,0.00,Rainwise IP-100,2013-03-05 06:51:00,
2013-03-05 01:56:00,25.6,23.0,29.43,ENE,67,3.0,6.3,83,0.00,,,0.00,Rainwise IP-100,2013-03-05 06:56:00,
2013-03-05 02:01:00,25.6,23.0,29.43,ENE,67,2.3,7.9,83,0.00,,,0.00,Rainwise IP-100,2013-03-05 07:01:00,
2013-03-05 02:06:00,25.6,23.0,29.43,ENE,67,4.0,4.9,83,0.00,,,0.00,Rainwise IP-100,2013-03-05 07:06:00,
2013-03-05 02:12:00,25.6,23.0,29.43,ENE,67,2.8,5.1,83,0.00,,,0.00,Rainwise IP-100,2013-03-05 07:12:00,
2013-03-05 02:17:00,25.6,23.0,29.44,ENE,67,0.0,4.0,83,0.00,,,0.00,Rainwise IP-100,2013-03-05 07:17:00,
2013-03-05 02:22:00,25.5,23.0,29.43,ENE,67,0.0,3.3,83,0.00,,,0.00,Rainwise IP-100,2013-03-05 07:22:00,
2013-03-05 02:27:00,25.5,23.0,29.44,NE,45,4.2,4.2,83,0.00,,,0.00,Rainwise IP-100,2013-03-05 07:27:00,
2013-03-05 02:31:00,25.5,23.0,29.44,NNE,22,1.4,4.4,83,0.00,,,0.00,Rainwise IP-100,2013-03-05 07:31:00,
2013-03-05 02:36:00,25.5,23.0,29.44,NE,45,3.3,3.3,83,0.00,,,0.00,Rainwise IP-100,2013-03-05 07:36:00,
2013-03-05 02:41:00,25.5,21.0,29.44,North,360,1.2,4.2,82,0.00,,,0.00,Rainwise IP-100,2013-03-05 07:41:00,
2013-03-05 02:46:00,25.5,21.0,29.44,NNE,22,1.9,2.6,82,0.00,,,0.00,Rainwise IP-100,2013-03-05 07:46:00,
2013-03-05 02:51:00,25.5,21.0,29.44,NNE,22,0.0,2.3,82,0.00,,,0.00,Rainwise IP-100,2013-03-05 07:51:00,
2013-03-05 02:56:00,25.4,21.0,29.45,NNE,22,1.9,2.3,82,0.00,,,0.00,Rainwise IP-100,2013-03-05 07:56:00,
2013-03-05 03:01:00,25.4,21.0,29.45,ENE,67,1.6,3.5,82,0.00,,,0.00,Rainwise IP-100,2013-03-05 08:01:00,
2013-03-05 03:06:00,25.5,23.0,29.45,ENE,67,0.0,3.0,83,0.00,,,0.00,Rainwise IP-100,2013-03-05 08:06:00,
2013-03-05 03:11:00,25.6,23.0,29.45,ENE,67,2.6,2.6,83,0.00,,,0.00,Rainwise IP-100,2013-03-05 08:11:00,
2013-03-05 03:17:00,25.6,23.0,29.46,ENE,67,2.6,4.2,83,0.00,,,0.00,Rainwise IP-100,2013-03-05 08:17:00,
2013-03-05 03:22:00,25.6,23.0,29.46,ENE,67,2.1,4.2,83,0.00,,,0.00,Rainwise IP-100,2013-03-05 08:22:00,
2013-03-05 03:27:00,25.6,23.0,29.46,ESE,112,1.6,2.6,83,0.00,,,0.00,Rainwise IP-100,2013-03-05 08:27:00,
2013-03-05 03:32:00,25.6,23.0,29.46,ESE,112,2.3,3.5,83,0.00,,,0.00,Rainwise IP-100,2013-03-05 08:32:00,
2013-03-05 03:37:00,25.6,23.0,29.46,ENE,67,4.0,6.1,83,0.00,,,0.00,Rainwise IP-100,2013-03-05 08:37:00,
2013-03-05 03:42:00,25.6,23.0,29.46,ENE,67,2.8,4.9,83,0.00,,,0.00,Rainwise IP-100,2013-03-05 08:42:00,
2013-03-05 03:47:00,25.6,23.0,29.47,NE,45,2.1,5.1,83,0.00,,,0.00,Rainwise IP-100,2013-03-05 08:47:00,
2013-03-05 03:52:00,25.6,23.0,29.47,NNW,337,4.2,4.2,83,0.00,,,0.00,Rainwise IP-100,2013-03-05 08:52:00,
2013-03-05 03:57:00,25.6,23.0,29.47,NNE,22,4.0,4.4,83,0.00,,,0.00,Rainwise IP-100,2013-03-05 08:57:00,
2013-03-05 04:02:00,25.6,23.0,29.48,NE,45,3.0,5.6,83,0.00,,,0.00,Rainwise IP-100,2013-03-05 09:02:00,
2013-03-05 04:07:00,25.6,23.0,29.48,NNE,22,3.5,5.8,83,0.00,,,0.00,Rainwise IP-100,2013-03-05 09:07:00,
2013-03-05 04:12:00,25.6,23.0,29.48,NE,45,1.6,5.6,83,0.00,,,0.00,Rainwise IP-100,2013-03-05 09:12:00,
2013-03-05 04:17:00,25.6,23.0,29.48,NE,45,4.4,6.1,83,0.00,,,0.00,Rainwise IP-100,2013-03-05 09:17:00,
2013-03-05 04:22:00,25.6,23.0,29.48,North,360,2.1,5.6,83,0.00,,,0.00,Rainwise IP-100,2013-03-05 09:22:00,
2013-03-05 04:27:00,25.6,23.0,29.49,ENE,67,0.0,4.9,83,0.00,,,0.00,Rainwise IP-100,2013-03-05 09:27:00,
2013-03-05 04:33:00,25.6,23.0,29.49,ENE,67,0.0,0.0,83,0.00,,,0.00,Rainwise IP-100,2013-03-05 09:33:00,
2013-03-05 04:38:00,25.7,23.0,29.49,ENE,67,0.0,1.2,83,0.00,,,0.00,Rainwise IP-100,2013-03-05 09:38:00,
2013-03-05 04:43:00,25.7,23.0,29.49,NNE,22,3.5,3.5,83,0.00,,,0.00,Rainwise IP-100,2013-03-05 09:43:00,
2013-03-05 04:48:00,25.7,23.0,29.49,ENE,67,4.0,5.4,83,0.00,,,0.00,Rainwise IP-100,2013-03-05 09:48:00,
2013-03-05 04:53:00,25.8,23.0,29.49,NNE,22,0.0,4.7,83,0.00,,,0.00,Rainwise IP-100,2013-03-05 09:53:00,
2013-03-05 04:58:00,25.9,23.0,29.49,NNE,22,3.0,3.0,83,0.00,,,0.00,Rainwise IP-100,2013-03-05 09:58:00,
2013-03-05 05:01:00,25.9,23.0,29.49,NNE,22,0.0,3.3,83,0.00,,,0.00,Rainwise IP-100,2013-03-05 10:01:00,
2013-03-05 05:06:00,25.9,23.0,29.50,NE,45,3.3,4.9,83,0.00,,,0.00,Rainwise IP-100,2013-03-05 10:06:00,
2013-03-05 05:11:00,25.9,23.0,29.50,NE,45,2.1,5.8,83,0.00,,,0.00,Rainwise IP-100,2013-03-05 10:11:00,
2013-03-05 05:16:00,25.9,23.0,29.50,NNE,22,0.0,6.5,83,0.00,,,0.00,Rainwise IP-100,2013-03-05 10:16:00,
2013-03-05 05:21:00,25.9,23.0,29.51,NNE,22,3.0,4.7,83,0.00,,,0.00,Rainwise IP-100,2013-03-05 10:21:00,
2013-03-05 05:26:00,25.9,23.0,29.51,NE,45,2.8,4.2,83,0.00,,,0.00,Rainwise IP-100,2013-03-05 10:26:00,
2013-03-05 05:31:00,25.9,23.0,29.51,NNE,22,3.0,5.6,83,0.00,,,0.00,Rainwise IP-100,2013-03-05 10:31:00,
2013-03-05 05:37:00,25.9,23.0,29.51,North,360,1.9,5.6,83,0.00,,,0.00,Rainwise IP-100,2013-03-05 10:37:00,
2013-03-05 05:42:00,25.9,23.0,29.51,NE,45,0.0,6.1,83,0.00,,,0.00,Rainwise IP-100,2013-03-05 10:42:00,
2013-03-05 05:47:00,25.9,23.0,29.51,NE,45,1.9,5.8,83,0.00,,,0.00,Rainwise IP-100,2013-03-05 10:47:00,
2013-03-05 05:52:00,25.9,23.0,29.52,North,360,0.0,5.1,83,0.00,,,0.00,Rainwise IP-100,2013-03-05 10:52:00,
2013-03-05 05:57:00,25.9,23.0,29.52,North,360,4.2,5.8,83,0.00,,,0.00,Rainwise IP-100,2013-03-05 10:57:00,
2013-03-05 06:02:00,25.9,23.0,29.52,North,360,4.2,7.0,83,0.00,,,0.00,Rainwise IP-100,2013-03-05 11:02:00,
2013-03-05 06:07:00,25.9,23.0,29.52,NNW,337,4.7,6.5,83,0.00,,,0.00,Rainwise IP-100,2013-03-05 11:07:00,
2013-03-05 06:12:00,25.9,23.0,29.52,NNE,22,2.8,8.2,83,0.00,,,0.00,Rainwise IP-100,2013-03-05 11:12:00,
2013-03-05 06:17:00,26.0,23.0,29.53,NNE,22,1.4,4.4,83,0.00,,,0.00,Rainwise IP-100,2013-03-05 11:17:00,
2013-03-05 06:22:00,26.0,23.0,29.53,North,360,2.1,4.4,83,0.00,,,0.00,Rainwise IP-100,2013-03-05 11:22:00,
2013-03-05 06:27:00,26.1,23.0,29.53,NNW,337,2.8,3.3,83,0.00,,,0.00,Rainwise IP-100,2013-03-05 11:27:00,
2013-03-05 06:32:00,26.1,23.0,29.53,North,360,1.9,3.5,83,0.00,,,0.00,Rainwise IP-100,2013-03-05 11:32:00,
2013-03-05 06:37:00,26.1,23.0,29.53,NE,45,3.7,5.4,83,0.00,,,0.00,Rainwise IP-100,2013-03-05 11:37:00,
2013-03-05 06:42:00,26.2,23.0,29.53,NE,45,2.8,4.7,83,0.00,,,0.00,Rainwise IP-100,2013-03-05 11:42:00,
2013-03-05 06:47:00,26.2,23.0,29.53,ENE,67,4.4,5.1,83,0.00,,,0.00,Rainwise IP-100,2013-03-05 11:47:00,
2013-03-05 06:53:00,26.2,23.0,29.53,ENE,67,3.5,5.6,83,0.00,,,0.00,Rainwise IP-100,2013-03-05 11:53:00,
2013-03-05 06:58:00,26.3,23.0,29.53,ENE,67,3.0,7.7,83,0.00,,,0.00,Rainwise IP-100,2013-03-05 11:58:00,
2013-03-05 07:03:00,26.4,21.0,29.54,NNE,22,2.1,4.0,82,0.00,,,0.00,Rainwise IP-100,2013-03-05 12:03:00,
2013-03-05 07:08:00,26.5,23.0,29.54,NE,45,1.9,5.8,82,0.00,,,0.00,Rainwise IP-100,2013-03-05 12:08:00,
2013-03-05 07:13:00,26.5,23.0,29.54,NNE,22,1.2,5.1,82,0.00,,,0.00,Rainwise IP-100,2013-03-05 12:13:00,
2013-03-05 07:18:00,26.7,23.0,29.54,NNE,22,0.0,1.9,82,0.00,,,0.00,Rainwise IP-100,2013-03-05 12:18:00,
2013-03-05 07:23:00,26.8,23.0,29.54,NNE,22,0.0,0.0,82,0.00,,,0.00,Rainwise IP-100,2013-03-05 12:23:00,
2013-03-05 07:28:00,26.9,23.0,29.55,NNE,22,0.0,1.4,82,0.00,,,0.00,Rainwise IP-100,2013-03-05 12:28:00,
2013-03-05 07:33:00,27.0,23.0,29.55,NNE,22,0.0,0.0,82,0.00,,,0.00,Rainwise IP-100,2013-03-05 12:33:00,
2013-03-05 07:38:00,27.2,23.0,29.56,NNE,22,0.0,1.6,82,0.00,,,0.00,Rainwise IP-100,2013-03-05 12:38:00,
2013-03-05 07:43:00,27.2,23.0,29.56,NNE,22,0.0,2.1,81,0.00,,,0.00,Rainwise IP-100,2013-03-05 12:43:00,
2013-03-05 07:48:00,27.2,23.0,29.56,NNE,22,1.2,1.6,81,0.00,,,0.00,Rainwise IP-100,2013-03-05 12:48:00,
2013-03-05 07:53:00,27.1,23.0,29.56,NE,45,1.4,2.8,81,0.00,,,0.00,Rainwise IP-100,2013-03-05 12:53:00,
2013-03-05 07:58:00,27.1,23.0,29.56,NE,45,2.6,3.7,81,0.00,,,0.00,Rainwise IP-100,2013-03-05 12:58:00,
2013-03-05 08:04:00,27.1,23.0,29.56,NNE,22,2.8,3.7,81,0.00,,,0.00,Rainwise IP-100,2013-03-05 13:04:00,
2013-03-05 08:09:00,27.1,23.0,29.56,ENE,67,4.2,5.6,81,0.00,,,0.00,Rainwise IP-100,2013-03-05 13:09:00,
2013-03-05 08:14:00,27.1,23.0,29.56,NNE,22,1.6,5.4,81,0.00,,,0.00,Rainwise IP-100,2013-03-05 13:14:00,
2013-03-05 08:19:00,27.2,23.0,29.57,ENE,67,2.6,4.9,81,0.00,,,0.00,Rainwise IP-100,2013-03-05 13:19:00,
2013-03-05 08:24:00,27.4,23.0,29.56,NE,45,3.0,4.7,81,0.00,,,0.00,Rainwise IP-100,2013-03-05 13:24:00,
2013-03-05 08:29:00,27.4,23.0,29.56,NE,45,4.2,5.1,81,0.00,,,0.00,Rainwise IP-100,2013-03-05 13:29:00,
2013-03-05 08:34:00,27.3,23.0,29.56,ENE,67,1.6,5.1,81,0.00,,,0.00,Rainwise IP-100,2013-03-05 13:34:00,
2013-03-05 08:39:00,27.3,23.0,29.57,ENE,67,4.9,4.9,81,0.00,,,0.00,Rainwise IP-100,2013-03-05 13:39:00,
2013-03-05 08:44:00,27.4,23.0,29.57,ENE,67,2.6,5.1,81,0.00,,,0.00,Rainwise IP-100,2013-03-05 13:44:00,
2013-03-05 08:49:00,27.5,23.0,29.57,ENE,67,2.8,3.3,81,0.00,,,0.00,Rainwise IP-100,2013-03-05 13:49:00,
2013-03-05 08:54:00,27.6,23.0,29.57,NE,45,1.2,3.7,81,0.00,,,0.00,Rainwise IP-100,2013-03-05 13:54:00,
2013-03-05 08:59:00,27.7,23.0,29.57,ENE,67,2.3,4.2,81,0.00,,,0.00,Rainwise IP-100,2013-03-05 13:59:00,
2013-03-05 09:04:00,27.8,23.0,29.58,ENE,67,2.3,3.5,81,0.00,,,0.00,Rainwise IP-100,2013-03-05 14:04:00,
2013-03-05 09:09:00,27.9,23.0,29.58,ENE,67,0.0,3.5,81,0.00,,,0.00,Rainwise IP-100,2013-03-05 14:09:00,
2013-03-05 09:14:00,28.1,23.0,29.58,ENE,67,1.4,1.6,81,0.00,,,0.00,Rainwise IP-100,2013-03-05 14:14:00,
2013-03-05 09:20:00,28.2,23.0,29.58,NNE,22,2.1,2.3,80,0.00,,,0.00,Rainwise IP-100,2013-03-05 14:20:00,
2013-03-05 09:25:00,28.4,23.0,29.58,NNE,22,1.4,2.6,80,0.00,,,0.00,Rainwise IP-100,2013-03-05 14:25:00,
2013-03-05 09:30:00,28.5,24.0,29.59,ENE,67,1.6,4.0,79,0.00,,,0.00,Rainwise IP-100,2013-03-05 14:30:00,
2013-03-05 09:35:00,28.3,23.0,29.58,ENE,67,1.4,3.3,79,0.00,,,0.00,Rainwise IP-100,2013-03-05 14:35:00,
2013-03-05 09:40:00,28.4,23.0,29.58,NE,45,0.0,3.7,79,0.00,,,0.00,Rainwise IP-100,2013-03-05 14:40:00,
2013-03-05 09:45:00,28.9,24.0,29.59,NNW,337,0.0,3.0,79,0.00,,,0.00,Rainwise IP-100,2013-03-05 14:45:00,
2013-03-05 09:50:00,29.5,26.0,29.59,ENE,67,2.1,2.6,81,0.00,,,0.00,Rainwise IP-100,2013-03-05 14:50:00,
2013-03-05 09:55:00,29.6,26.0,29.59,ENE,67,1.9,2.6,80,0.00,,,0.00,Rainwise IP-100,2013-03-05 14:55:00,
2013-03-05 10:00:00,29.6,24.0,29.59,ENE,67,1.9,3.0,78,0.00,,,0.00,Rainwise IP-100,2013-03-05 15:00:00,
2013-03-05 10:05:00,29.9,24.0,29.58,ENE,67,1.4,3.0,78,0.00,,,0.00,Rainwise IP-100,2013-03-05 15:05:00,
2013-03-05 10:10:00,30.6,26.0,29.58,WNW,292,0.0,2.1,81,0.00,,,0.00,Rainwise IP-100,2013-03-05 15:10:00,
2013-03-05 10:15:00,31.1,26.0,29.58,NE,45,1.6,2.6,84,0.00,,,0.00,Rainwise IP-100,2013-03-05 15:15:00,
2013-03-05 10:20:00,31.1,26.0,29.58,ENE,67,2.1,4.4,84,0.00,,,0.00,Rainwise IP-100,2013-03-05 15:20:00,
2013-03-05 10:26:00,30.8,26.0,29.57,ENE,67,2.1,4.2,81,0.00,,,0.00,Rainwise IP-100,2013-03-05 15:26:00,
2013-03-05 10:31:00,30.9,26.0,29.58,ENE,67,2.1,3.3,80,0.00,,,0.00,Rainwise IP-100,2013-03-05 15:31:00,
2013-03-05 10:36:00,31.5,28.0,29.57,ENE,67,1.9,3.0,82,0.00,,,0.00,Rainwise IP-100,2013-03-05 15:36:00,
2013-03-05 10:41:00,31.5,28.0,29.57,ENE,67,4.0,4.4,81,0.00,,,0.00,Rainwise IP-100,2013-03-05 15:41:00,
2013-03-05 10:46:00,31.5,26.0,29.57,ENE,67,3.3,6.1,77,0.00,,,0.00,Rainwise IP-100,2013-03-05 15:46:00,
2013-03-05 10:51:00,31.8,26.0,29.57,ENE,67,4.0,6.3,75,0.00,,,0.00,Rainwise IP-100,2013-03-05 15:51:00,
2013-03-05 10:56:00,32.2,24.0,29.57,NE,45,2.6,7.0,74,0.00,,,0.00,Rainwise IP-100,2013-03-05 15:56:00,
2013-03-05 11:01:00,32.7,26.0,29.57,ENE,67,7.5,7.9,73,0.00,,,0.00,Rainwise IP-100,2013-03-05 16:01:00,
2013-03-05 11:06:00,33.6,28.0,29.57,North,360,2.3,8.4,74,0.00,,,0.00,Rainwise IP-100,2013-03-05 16:06:00,
2013-03-05 11:11:00,34.6,29.0,29.57,ENE,67,5.1,9.6,78,0.00,,,0.00,Rainwise IP-100,2013-03-05 16:11:00,
2013-03-05 11:16:00,35.0,28.0,29.57,ENE,67,8.9,8.9,77,0.00,,,0.00,Rainwise IP-100,2013-03-05 16:16:00,
2013-03-05 11:21:00,34.5,28.0,29.57,NE,45,4.0,11.9,73,0.00,,,0.00,Rainwise IP-100,2013-03-05 16:21:00,
2013-03-05 11:26:00,34.2,26.0,29.56,NNE,22,6.8,11.7,71,0.00,,,0.00,Rainwise IP-100,2013-03-05 16:26:00,
2013-03-05 11:31:00,34.8,26.0,29.56,NNE,22,3.5,12.6,71,0.00,,,0.00,Rainwise IP-100,2013-03-05 16:31:00,
2013-03-05 11:37:00,35.4,26.0,29.57,ENE,67,1.2,9.3,70,0.00,,,0.00,Rainwise IP-100,2013-03-05 16:37:00,
2013-03-05 11:42:00,36.1,26.0,29.57,ENE,67,6.1,7.9,69,0.00,,,0.00,Rainwise IP-100,2013-03-05 16:42:00,
2013-03-05 11:47:00,36.2,26.0,29.57,ENE,67,6.5,9.8,68,0.00,,,0.00,Rainwise IP-100,2013-03-05 16:47:00,
2013-03-05 11:52:00,35.8,26.0,29.57,NNE,22,5.4,8.2,68,0.00,,,0.00,Rainwise IP-100,2013-03-05 16:52:00,
2013-03-05 11:57:00,36.3,26.0,29.57,ENE,67,5.6,9.1,67,0.00,,,0.00,Rainwise IP-100,2013-03-05 16:57:00,
2013-03-05 12:02:00,36.9,28.0,29.57,ENE,67,6.3,13.3,67,0.00,,,0.00,Rainwise IP-100,2013-03-05 17:02:00,
2013-03-05 12:07:00,37.5,28.0,29.56,NE,45,4.2,11.7,66,0.00,,,0.00,Rainwise IP-100,2013-03-05 17:07:00,
2013-03-05 12:12:00,37.8,28.0,29.57,ENE,67,7.2,13.5,66,0.00,,,0.00,Rainwise IP-100,2013-03-05 17:12:00,
2013-03-05 12:17:00,37.9,28.0,29.56,North,360,17.3,20.5,65,0.00,,,0.01,Rainwise IP-100,2013-03-05 17:17:00,
2013-03-05 12:22:00,38.3,28.0,29.56,NNE,22,3.0,20.1,65,0.06,,,0.01,Rainwise IP-100,2013-03-05 17:22:00,
2013-03-05 12:27:00,37.8,28.0,29.56,ENE,67,7.7,20.1,64,0.06,,,0.01,Rainwise IP-100,2013-03-05 17:27:00,
2013-03-05 12:32:00,37.4,26.0,29.56,NNE,22,8.6,21.2,64,0.00,,,0.01,Rainwise IP-100,2013-03-05 17:32:00,
2013-03-05 12:37:00,37.5,28.0,29.57,NNE,22,11.2,18.9,65,0.00,,,0.01,Rainwise IP-100,2013-03-05 17:37:00,
2013-03-05 12:42:00,37.7,28.0,29.57,North,360,12.8,19.4,65,0.00,,,0.01,Rainwise IP-100,2013-03-05 17:42:00,
2013-03-05 12:47:00,38.2,28.0,29.57,NNE,22,13.3,19.1,64,0.00,,,0.01,Rainwise IP-100,2013-03-05 17:47:00,
2013-03-05 12:53:00,38.3,28.0,29.57,NNE,22,7.9,19.8,64,0.00,,,0.01,Rainwise IP-100,2013-03-05 17:53:00,
2013-03-05 12:58:00,38.5,28.0,29.57,ENE,67,12.1,15.9,63,0.00,,,0.01,Rainwise IP-100,2013-03-05 17:58:00,
2013-03-05 13:03:00,38.5,28.0,29.56,North,360,11.2,18.0,63,0.00,,,0.01,Rainwise IP-100,2013-03-05 18:03:00,
2013-03-05 13:08:00,38.4,26.0,29.57,ENE,67,10.7,15.9,63,0.00,,,0.01,Rainwise IP-100,2013-03-05 18:08:00,
2013-03-05 13:13:00,38.2,26.0,29.56,ENE,67,15.6,18.0,63,0.00,,,0.01,Rainwise IP-100,2013-03-05 18:13:00,
2013-03-05 13:18:00,38.2,26.0,29.57,North,360,6.8,16.1,63,0.00,,,0.01,Rainwise IP-100,2013-03-05 18:18:00,
2013-03-05 13:23:00,38.4,26.0,29.56,NNE,22,11.9,16.8,63,0.00,,,0.01,Rainwise IP-100,2013-03-05 18:23:00,
2013-03-05 13:28:00,38.1,26.0,29.56,ENE,67,13.3,17.7,63,0.00,,,0.01,Rainwise IP-100,2013-03-05 18:28:00,
2013-03-05 13:33:00,38.0,26.0,29.56,NE,45,12.8,16.6,63,0.00,,,0.01,Rainwise IP-100,2013-03-05 18:33:00,
2013-03-05 13:38:00,38.4,26.0,29.57,ENE,67,5.1,14.5,63,0.00,,,0.01,Rainwise IP-100,2013-03-05 18:38:00,
2013-03-05 13:43:00,39.0,28.0,29.56,NNW,337,5.8,11.0,62,0.00,,,0.01,Rainwise IP-100,2013-03-05 18:43:00,
2013-03-05 13:48:00,39.7,29.0,29.57,ENE,67,12.4,14.5,62,0.00,,,0.01,Rainwise IP-100,2013-03-05 18:48:00,
2013-03-05 13:53:00,39.7,28.0,29.57,NNW,337,8.6,16.3,61,0.00,,,0.01,Rainwise IP-100,2013-03-05 18:53:00,
2013-03-05 13:59:00,39.8,28.0,29.57,ENE,67,7.0,11.9,61,0.00,,,0.01,Rainwise IP-100,2013-03-05 18:59:00,
2013-03-05 14:04:00,39.7,28.0,29.57,NE,45,2.3,18.2,61,0.00,,,0.01,Rainwise IP-100,2013-03-05 19:04:00,
2013-03-05 14:09:00,39.6,28.0,29.57,ENE,67,10.3,15.6,61,0.00,,,0.01,Rainwise IP-100,2013-03-05 19:09:00,
2013-03-05 14:14:00,39.7,28.0,29.57,NE,45,9.6,19.1,60,0.00,,,0.01,Rainwise IP-100,2013-03-05 19:14:00,
2013-03-05 14:19:00,39.9,28.0,29.58,NNW,337,5.6,15.2,60,0.00,,,0.01,Rainwise IP-100,2013-03-05 19:19:00,
2013-03-05 14:24:00,40.6,28.0,29.57,NNE,22,9.6,19.8,59,0.00,,,0.01,Rainwise IP-100,2013-03-05 19:24:00,
2013-03-05 14:29:00,41.1,28.0,29.58,NW,315,11.0,17.3,58,0.00,,,0.01,Rainwise IP-100,2013-03-05 19:29:00,
2013-03-05 14:34:00,40.7,28.0,29.57,ENE,67,9.6,14.5,58,0.00,,,0.01,Rainwise IP-100,2013-03-05 19:34:00,
2013-03-05 14:39:00,40.1,28.0,29.58,NNE,22,9.6,14.7,59,0.00,,,0.01,Rainwise IP-100,2013-03-05 19:39:00,
2013-03-05 14:44:00,40.7,28.0,29.58,NNW,337,12.8,13.1,59,0.00,,,0.01,Rainwise IP-100,2013-03-05 19:44:00,
2013-03-05 14:49:00,41.3,28.0,29.58,North,360,10.5,16.8,57,0.00,,,0.01,Rainwise IP-100,2013-03-05 19:49:00,
2013-03-05 14:54:00,41.0,28.0,29.58,NNE,22,5.6,14.5,57,0.00,,,0.01,Rainwise IP-100,2013-03-05 19:54:00,
2013-03-05 14:59:00,41.0,28.0,29.58,NNW,337,6.5,14.5,57,0.00,,,0.01,Rainwise IP-100,2013-03-05 19:59:00,
2013-03-05 15:04:00,41.2,28.0,29.58,NE,45,4.7,11.9,57,0.00,,,0.01,Rainwise IP-100,2013-03-05 20:04:00,
2013-03-05 15:09:00,41.1,28.0,29.58,NNE,22,2.1,9.1,57,0.00,,,0.01,Rainwise IP-100,2013-03-05 20:09:00,
2013-03-05 15:15:00,41.4,28.0,29.58,ENE,67,4.9,13.1,57,0.00,,,0.01,Rainwise IP-100,2013-03-05 20:15:00,
2013-03-05 15:20:00,41.9,28.0,29.59,ENE,67,6.8,15.2,56,0.00,,,0.01,Rainwise IP-100,2013-03-05 20:20:00,
2013-03-05 15:25:00,41.5,28.0,29.58,NNE,22,12.8,13.8,56,0.00,,,0.01,Rainwise IP-100,2013-03-05 20:25:00,
2013-03-05 15:30:00,41.2,28.0,29.58,ENE,67,10.3,14.9,56,0.00,,,0.01,Rainwise IP-100,2013-03-05 20:30:00,
2013-03-05 15:35:00,40.9,28.0,29.58,NNE,22,8.2,18.2,57,0.00,,,0.01,Rainwise IP-100,2013-03-05 20:35:00,
2013-03-05 15:40:00,40.8,28.0,29.58,North,360,7.2,14.5,57,0.00,,,0.01,Rainwise IP-100,2013-03-05 20:40:00,
2013-03-05 15:45:00,40.7,28.0,29.59,ENE,67,5.8,12.1,57,0.00,,,0.01,Rainwise IP-100,2013-03-05 20:45:00,
2013-03-05 15:50:00,40.5,28.0,29.59,NNE,22,5.4,11.7,57,0.00,,,0.01,Rainwise IP-100,2013-03-05 20:50:00,
2013-03-05 15:55:00,40.3,28.0,29.59,NNE,22,7.0,10.7,58,0.00,,,0.01,Rainwise IP-100,2013-03-05 20:55:00,
2013-03-05 16:00:00,40.3,28.0,29.58,NE,45,9.3,11.0,59,0.00,,,0.01,Rainwise IP-100,2013-03-05 21:00:00,
2013-03-05 16:05:00,40.2,28.0,29.59,ENE,67,9.1,12.4,59,0.00,,,0.01,Rainwise IP-100,2013-03-05 21:05:00,
2013-03-05 16:10:00,40.1,28.0,29.59,NNE,22,4.2,13.1,60,0.00,,,0.01,Rainwise IP-100,2013-03-05 21:10:00,
2013-03-05 16:15:00,40.2,28.0,29.59,NE,45,2.6,8.9,60,0.00,,,0.01,Rainwise IP-100,2013-03-05 21:15:00,
2013-03-05 16:20:00,40.4,28.0,29.60,NNE,22,4.9,11.9,59,0.00,,,0.01,Rainwise IP-100,2013-03-05 21:20:00,
2013-03-05 16:25:00,40.4,28.0,29.59,NNE,22,5.6,7.7,59,0.00,,,0.01,Rainwise IP-100,2013-03-05 21:25:00,
2013-03-05 16:31:00,40.6,28.0,29.60,NNE,22,2.8,8.4,59,0.00,,,0.01,Rainwise IP-100,2013-03-05 21:31:00,
2013-03-05 16:36:00,40.6,28.0,29.60,NE,45,7.7,10.7,58,0.00,,,0.01,Rainwise IP-100,2013-03-05 21:36:00,
2013-03-05 16:41:00,40.6,28.0,29.60,NNW,337,3.3,7.7,58,0.00,,,0.01,Rainwise IP-100,2013-03-05 21:41:00,
2013-03-05 16:46:00,40.6,28.0,29.60,NNW,337,8.2,11.0,59,0.00,,,0.01,Rainwise IP-100,2013-03-05 21:46:00,
2013-03-05 16:51:00,40.5,28.0,29.60,NNE,22,1.6,10.3,59,0.00,,,0.01,Rainwise IP-100,2013-03-05 21:51:00,
2013-03-05 16:56:00,40.3,28.0,29.60,NE,45,6.8,6.8,59,0.00,,,0.01,Rainwise IP-100,2013-03-05 21:56:00,
2013-03-05 17:01:00,40.2,28.0,29.61,NE,45,3.5,7.7,59,0.00,,,0.01,Rainwise IP-100,2013-03-05 22:01:00,
2013-03-05 17:06:00,39.9,28.0,29.61,NE,45,2.3,4.9,60,0.00,,,0.01,Rainwise IP-100,2013-03-05 22:06:00,
2013-03-05 17:11:00,39.7,28.0,29.61,NNW,337,3.3,4.2,61,0.00,,,0.01,Rainwise IP-100,2013-03-05 22:11:00,
2013-03-05 17:16:00,39.8,28.0,29.61,NNE,22,5.4,7.2,61,0.00,,,0.01,Rainwise IP-100,2013-03-05 22:16:00,
2013-03-05 17:21:00,40.0,28.0,29.61,North,360,3.3,7.2,60,0.00,,,0.01,Rainwise IP-100,2013-03-05 22:21:00,
2013-03-05 17:26:00,40.1,28.0,29.61,NNE,22,3.3,7.0,60,0.00,,,0.01,Rainwise IP-100,2013-03-05 22:26:00,
2013-03-05 17:31:00,40.1,28.0,29.61,NNW,337,4.0,5.4,60,0.00,,,0.01,Rainwise IP-100,2013-03-05 22:31:00,
2013-03-05 17:36:00,40.0,28.0,29.61,NNW,337,6.5,6.8,60,0.00,,,0.01,Rainwise IP-100,2013-03-05 22:36:00,
2013-03-05 17:41:00,39.9,28.0,29.61,NNW,337,5.6,7.0,60,0.00,,,0.01,Rainwise IP-100,2013-03-05 22:41:00,
2013-03-05 17:47:00,39.8,28.0,29.61,NNW,337,5.4,6.8,60,0.00,,,0.01,Rainwise IP-100,2013-03-05 22:47:00,
2013-03-05 17:52:00,39.6,28.0,29.61,NNW,337,2.6,7.0,61,0.00,,,0.01,Rainwise IP-100,2013-03-05 22:52:00,
2013-03-05 17:57:00,39.4,28.0,29.61,NNW,337,2.1,5.4,61,0.00,,,0.01,Rainwise IP-100,2013-03-05 22:57:00,
2013-03-05 18:02:00,39.1,28.0,29.62,NNW,337,1.2,3.0,61,0.00,,,0.01,Rainwise IP-100,2013-03-05 23:02:00,
2013-03-05 18:07:00,38.9,28.0,29.61,NNW,337,2.1,3.0,62,0.00,,,0.01,Rainwise IP-100,2013-03-05 23:07:00,
2013-03-05 18:12:00,38.7,28.0,29.61,NNW,337,2.3,4.4,62,0.00,,,0.01,Rainwise IP-100,2013-03-05 23:12:00,
2013-03-05 18:17:00,38.4,26.0,29.61,NNW,337,1.4,5.1,63,0.00,,,0.01,Rainwise IP-100,2013-03-05 23:17:00,
2013-03-05 18:22:00,38.2,26.0,29.62,NNW,337,2.6,2.6,63,0.00,,,0.01,Rainwise IP-100,2013-03-05 23:22:00,
2013-03-05 18:27:00,38.0,28.0,29.61,NNW,337,0.0,2.8,64,0.00,,,0.01,Rainwise IP-100,2013-03-05 23:27:00,
2013-03-05 18:32:00,37.5,28.0,29.62,NNW,337,0.0,0.0,65,0.00,,,0.01,Rainwise IP-100,2013-03-05 23:32:00,
2013-03-05 18:37:00,36.8,28.0,29.62,NNW,337,0.0,0.0,66,0.00,,,0.01,Rainwise IP-100,2013-03-05 23:37:00,
2013-03-05 18:43:00,35.9,26.0,29.62,NNW,337,0.0,0.0,67,0.00,,,0.01,Rainwise IP-100,2013-03-05 23:43:00,
2013-03-05 18:48:00,35.4,26.0,29.62,NNW,337,0.0,0.0,69,0.00,,,0.01,Rainwise IP-100,2013-03-05 23:48:00,
2013-03-05 18:53:00,35.0,26.0,29.62,NNW,337,0.0,0.0,70,0.00,,,0.01,Rainwise IP-100,2013-03-05 23:53:00,
2013-03-05 18:58:00,34.6,26.0,29.62,NNW,337,0.0,1.2,72,0.00,,,0.01,Rainwise IP-100,2013-03-05 23:58:00,
2013-03-05 19:03:00,34.3,28.0,29.62,NNW,337,0.0,0.0,73,0.00,,,0.01,Rainwise IP-100,2013-03-06 00:03:00,
2013-03-05 19:08:00,34.2,28.0,29.63,NNW,337,0.0,0.0,73,0.00,,,0.01,Rainwise IP-100,2013-03-06 00:08:00,
2013-03-05 19:13:00,34.1,28.0,29.63,NNW,337,0.0,0.0,74,0.00,,,0.01,Rainwise IP-100,2013-03-06 00:13:00,
2013-03-05 19:18:00,34.0,28.0,29.63,NNW,337,0.0,0.0,74,0.00,,,0.01,Rainwise IP-100,2013-03-06 00:18:00,
2013-03-05 19:23:00,33.7,28.0,29.63,NNW,337,0.0,0.0,74,0.00,,,0.01,Rainwise IP-100,2013-03-06 00:23:00,
2013-03-05 19:28:00,33.3,26.0,29.63,NNW,337,0.0,1.2,76,0.00,,,0.01,Rainwise IP-100,2013-03-06 00:28:00,
2013-03-05 19:33:00,32.8,26.0,29.63,NNW,337,0.0,0.0,76,0.00,,,0.01,Rainwise IP-100,2013-03-06 00:33:00,
2013-03-05 19:38:00,32.5,28.0,29.63,NNW,337,0.0,0.0,78,0.00,,,0.01,Rainwise IP-100,2013-03-06 00:38:00,
2013-03-05 19:43:00,32.2,26.0,29.64,NNW,337,0.0,0.0,78,0.00,,,0.01,Rainwise IP-100,2013-03-06 00:43:00,
2013-03-05 19:48:00,32.0,26.0,29.63,NNW,337,0.0,0.0,79,0.00,,,0.01,Rainwise IP-100,2013-03-06 00:48:00,
2013-03-05 19:53:00,31.7,26.0,29.63,NNW,337,0.0,0.0,80,0.00,,,0.01,Rainwise IP-100,2013-03-06 00:53:00,
2013-03-05 19:59:00,31.4,26.0,29.63,NNW,337,0.0,0.0,81,0.00,,,0.01,Rainwise IP-100,2013-03-06 00:59:00,
2013-03-05 20:04:00,31.1,26.0,29.63,NNW,337,0.0,0.0,81,0.00,,,0.01,Rainwise IP-100,2013-03-06 01:04:00,
2013-03-05 20:09:00,30.9,26.0,29.64,NNW,337,0.0,0.0,82,0.00,,,0.01,Rainwise IP-100,2013-03-06 01:09:00,
2013-03-05 20:14:00,30.5,26.0,29.63,NNW,337,0.0,0.0,82,0.00,,,0.01,Rainwise IP-100,2013-03-06 01:14:00,
2013-03-05 20:19:00,30.2,26.0,29.63,NNW,337,0.0,0.0,83,0.00,,,0.01,Rainwise IP-100,2013-03-06 01:19:00,
2013-03-05 20:24:00,29.7,26.0,29.63,NNW,337,1.6,1.9,84,0.00,,,0.01,Rainwise IP-100,2013-03-06 01:24:00,
2013-03-05 20:29:00,29.3,26.0,29.63,North,360,2.1,3.3,85,0.00,,,0.01,Rainwise IP-100,2013-03-06 01:29:00,
2013-03-05 20:34:00,29.2,26.0,29.63,North,360,0.0,2.8,86,0.00,,,0.01,Rainwise IP-100,2013-03-06 01:34:00,
2013-03-05 20:39:00,29.1,26.0,29.63,North,360,0.0,1.6,87,0.00,,,0.01,Rainwise IP-100,2013-03-06 01:39:00,
2013-03-05 20:44:00,29.1,26.0,29.63,North,360,0.0,1.4,87,0.00,,,0.01,Rainwise IP-100,2013-03-06 01:44:00,
2013-03-05 20:49:00,29.1,26.0,29.63,North,360,0.0,0.0,88,0.00,,,0.01,Rainwise IP-100,2013-03-06 01:49:00,
2013-03-05 20:54:00,29.1,26.0,29.63,North,360,0.0,0.0,88,0.00,,,0.01,Rainwise IP-100,2013-03-06 01:54:00,
2013-03-05 20:59:00,29.1,26.0,29.64,North,360,0.0,0.0,88,0.00,,,0.01,Rainwise IP-100,2013-03-06 01:59:00,
2013-03-05 21:04:00,29.1,26.0,29.64,North,360,0.0,0.0,88,0.00,,,0.01,Rainwise IP-100,2013-03-06 02:04:00,
2013-03-05 21:09:00,29.1,26.0,29.64,North,360,0.0,0.0,88,0.00,,,0.01,Rainwise IP-100,2013-03-06 02:09:00,
2013-03-05 21:15:00,29.0,26.0,29.64,North,360,0.0,0.0,89,0.00,,,0.01,Rainwise IP-100,2013-03-06 02:15:00,
2013-03-05 21:20:00,28.8,26.0,29.64,North,360,0.0,1.4,89,0.00,,,0.01,Rainwise IP-100,2013-03-06 02:20:00,
2013-03-05 21:25:00,28.6,26.0,29.63,North,360,0.0,1.4,89,0.00,,,0.01,Rainwise IP-100,2013-03-06 02:25:00,
2013-03-05 21:30:00,28.5,26.0,29.64,North,360,0.0,0.0,89,0.00,,,0.01,Rainwise IP-100,2013-03-06 02:30:00,
2013-03-05 21:35:00,28.4,26.0,29.63,North,360,0.0,0.0,90,0.00,,,0.01,Rainwise IP-100,2013-03-06 02:35:00,
2013-03-05 21:40:00,28.5,26.0,29.63,North,360,0.0,0.0,90,0.00,,,0.01,Rainwise IP-100,2013-03-06 02:40:00,
2013-03-05 21:45:00,28.6,26.0,29.63,North,360,0.0,0.0,90,0.00,,,0.01,Rainwise IP-100,2013-03-06 02:45:00,
2013-03-05 21:50:00,28.7,26.0,29.64,North,360,0.0,1.2,90,0.00,,,0.01,Rainwise IP-100,2013-03-06 02:50:00,
2013-03-05 21:55:00,28.8,26.0,29.63,North,360,0.0,1.6,90,0.00,,,0.01,Rainwise IP-100,2013-03-06 02:55:00,
2013-03-05 22:00:00,28.8,26.0,29.63,North,360,0.0,0.0,90,0.00,,,0.01,Rainwise IP-100,2013-03-06 03:00:00,
2013-03-05 22:05:00,28.8,26.0,29.64,North,360,0.0,0.0,90,0.00,,,0.01,Rainwise IP-100,2013-03-06 03:05:00,
2013-03-05 22:10:00,28.8,26.0,29.63,North,360,0.0,0.0,90,0.00,,,0.01,Rainwise IP-100,2013-03-06 03:10:00,
2013-03-05 22:15:00,29.1,26.0,29.63,North,360,0.0,0.0,90,0.00,,,0.01,Rainwise IP-100,2013-03-06 03:15:00,
2013-03-05 22:20:00,29.3,26.0,29.64,North,360,0.0,0.0,90,0.00,,,0.01,Rainwise IP-100,2013-03-06 03:20:00,
2013-03-05 22:25:00,29.3,26.0,29.64,North,360,0.0,0.0,90,0.00,,,0.01,Rainwise IP-100,2013-03-06 03:25:00,
2013-03-05 22:31:00,29.5,28.0,29.64,North,360,0.0,0.0,90,0.00,,,0.01,Rainwise IP-100,2013-03-06 03:31:00,
2013-03-05 22:36:00,29.5,28.0,29.65,North,360,0.0,0.0,90,0.00,,,0.01,Rainwise IP-100,2013-03-06 03:36:00,
2013-03-05 22:41:00,29.6,28.0,29.64,North,360,0.0,0.0,90,0.00,,,0.01,Rainwise IP-100,2013-03-06 03:41:00,
2013-03-05 22:46:00,29.8,28.0,29.64,North,360,0.0,0.0,90,0.00,,,0.01,Rainwise IP-100,2013-03-06 03:46:00,
2013-03-05 22:51:00,29.9,28.0,29.64,North,360,0.0,0.0,90,0.00,,,0.01,Rainwise IP-100,2013-03-06 03:51:00,
2013-03-05 22:56:00,30.0,28.0,29.64,North,360,0.0,0.0,90,0.00,,,0.01,Rainwise IP-100,2013-03-06 03:56:00,
2013-03-05 23:01:00,30.0,28.0,29.64,North,360,0.0,0.0,89,0.00,,,0.01,Rainwise IP-100,2013-03-06 04:01:00,
2013-03-05 23:06:00,29.9,28.0,29.65,North,360,0.0,0.0,89,0.00,,,0.01,Rainwise IP-100,2013-03-06 04:06:00,
2013-03-05 23:11:00,29.9,28.0,29.65,North,360,0.0,0.0,89,0.00,,,0.01,Rainwise IP-100,2013-03-06 04:11:00,
2013-03-05 23:16:00,29.9,28.0,29.65,North,360,0.0,0.0,90,0.00,,,0.01,Rainwise IP-100,2013-03-06 04:16:00,
2013-03-05 23:21:00,30.0,28.0,29.65,North,360,0.0,0.0,90,0.00,,,0.01,Rainwise IP-100,2013-03-06 04:21:00,
2013-03-05 23:26:00,30.0,28.0,29.65,North,360,0.0,0.0,90,0.00,,,0.01,Rainwise IP-100,2013-03-06 04:26:00,
2013-03-05 23:31:00,30.1,28.0,29.65,North,360,0.0,0.0,90,0.00,,,0.01,Rainwise IP-100,2013-03-06 04:31:00,
2013-03-05 23:36:00,30.1,28.0,29.65,North,360,0.0,0.0,90,0.00,,,0.01,Rainwise IP-100,2013-03-06 04:36:00,
2013-03-05 23:41:00,30.2,28.0,29.65,North,360,1.4,1.4,90,0.00,,,0.01,Rainwise IP-100,2013-03-06 04:41:00,
2013-03-05 23:47:00,30.2,28.0,29.65,North,360,0.0,1.6,90,0.00,,,0.01,Rainwise IP-100,2013-03-06 04:47:00,
2013-03-05 23:52:00,30.2,28.0,29.65,North,360,0.0,1.4,90,0.00,,,0.01,Rainwise IP-100,2013-03-06 04:52:00,
2013-03-05 23:57:00,30.2,28.0,29.65,North,360,0.0,0.0,89,0.00,,,0.01,Rainwise IP-100,2013-03-06 04:57:00,